Regional Weather Roundup
Issued by NWS Jackson, KY

Home | Current Version | Previous Version | Graphics & Text | Print | Product List | Glossary On
Versions: 1 2 3 4 5 6 7 8 9 10 11 12 13 14 15 16 17 18 19 20 21 22 23 24 25 26 27 28 29 30 31 32 33 34 35 36 37 38 39 40 41 42 43 44 45 46 47 48 49 50
000
ASUS43 KJKL 011319
RWRJKL

EAST KENTUCKY HOURLY WEATHER ROUNDUP
NATIONAL WEATHER SERVICE JACKSON KY
800 AM EST SUN FEB 01 2015

NOTE: "FAIR" INDICATES FEW OR NO CLOUDS BELOW 12,000 FEET WITH
NO SIGNIFICANT WEATHER AND/OR OBSTRUCTIONS TO VISIBILITY.

* THESE REPORTS ARE NOT UNDER NWS QUALITY CONTROL AND MAY NOT
  REPORT WEATHER SUCH AS PRECIPITATION AND FOG.

KYZ079-080-083-085-087-088-110-112-115-119-120-011400
...EASTERN KENTUCKY...

CITY           SKY/WX    TMP DP  RH WIND       PRES   REMARKS
JACKSON        CLOUDY    36  15  42 SE3       30.10F
LONDON         CLOUDY    40  13  33 S3        30.09F
SOMERSET*      CLOUDY    37  14  38 CALM      30.10S
MONTICELLO*    CLOUDY    45  19  35 SE7       30.10F
MIDDLESBORO*   CLOUDY    36  22  57 SW5       30.14S WCI  32
HARLAN APT*    CLOUDY    37  12  35 E3        30.12F
HAZARD APT*    CLOUDY    36  21  55 CALM      30.11
BLACK MTN*       N/A     36   7  30 SW9         N/A  WCI  29
PIKEVILLE APT* MOCLDY    32  19  59 S6        30.11F WCI  26
BIG SANDY*     CLOUDY    35  19  51 CALM      30.12F
MOREHEAD APT*  CLOUDY    37  16  41 VRB5      30.11F WCI  34
$$

KYZ035-036-041-042-044-050-067-078-099-011400
...CENTRAL KENTUCKY...

CITY           SKY/WX    TMP DP  RH WIND       PRES   REMARKS
MT STERLING*   CLOUDY    36  18  48 S8        30.09F WCI  29
FLEMING/MASON* CLOUDY    35  21  56 SE6       30.09F WCI  30
DANVILLE*      CLOUDY    37  21  52 SE6       30.05F WCI  33
RICHMOND*      CLOUDY    37  16  41 E6        30.07F WCI  33
LEXINGTON      CLOUDY    39  15  37 SE14      30.05F WCI  31
FRANKFORT      CLOUDY    39  16  39 SE10      30.02F WCI  32
$$

KYZ091>093-OHZ055-061-077-WVZ005-015-034-035-042-011400
...SOUTHERN OHIO/WEST VIRGINIA...

CITY           SKY/WX    TMP DP  RH WIND       PRES   REMARKS
COVINGTON      CLOUDY    35  29  78 SE15      29.99F WCI  25
COLUMBUS       LGT SNOW  32  30  93 SE7       30.13F FOG     WCI  26
DAYTON         CLOUDY    33  31  92 E12       30.05F FOG     WCI  24
WILMINGTON     FRZ RAIN  32  30  92 E8        30.07F FOG     WCI  25
HUNTINGTON     MIX PCPN  33  21  61 N6        30.14F WCI  28
CHARLESTON     CLOUDY    31  23  72 N3        30.16F
PINEVILLE*     CLOUDY    32  26  77 MISG      30.20F
BECKLEY        CLOUDY    32  16  51 E5        30.15F WCI  27
BLUEFIELD      CLOUDY    35  11  36 E5        30.14F WCI  31
$$

VAZ002-007-008-TNZ017-027-036-066-071-011400
...SOUTHWEST VIRGINIA/EAST TENNESSEE...

CITY           SKY/WX    TMP DP  RH WIND       PRES   REMARKS
WISE*          CLOUDY    36   5  27 SW6       30.11F WCI  31
JONESVILLE*    CLOUDY    32  25  74 CALM      30.16F
ABINGDON*      CLOUDY    36  15  41 E12       30.12F WCI  28
BRISTOL        CLOUDY    35  19  52 SE3       30.14F
KNOXVILLE      CLOUDY    36  23  59 N6        30.14R WCI  31
OAK RIDGE      CLOUDY    37  26  64 CALM      30.16S
CROSSVILLE     CLOUDY    43  19  38 S9G16     30.09R
NASHVILLE      CLOUDY    49  26  41 S16       30.02F
$$

...KEY TO REMARKS...
VSB - VISIBILITY IN MILES
WCI - WIND CHILL INDEX
HX  - HEAT INDEX

$$



USA.gov is the U.S. government's official web portal to all federal, state and local government web resources and services.